Flag for Norway Weather past 2 weeks in Mysen, Norway

Now
49 °F

Drizzle. Overcast.


Feels Like: 46 °F
Forecast: 41 / 52 °F
Wind: 7 mph from East

Location: Rygge

Current Time: Oct 22, 2014 at 5:48:55 AM

Latest Report: Oct 22, 2014 at 4:00 AM


Visibility: 11 mi

Pressure: 29.62 "Hg

Humidity: 91%

Dew point: 46 °F

Location of MysenLocation

Historic Weather in Mysen — Graph

°F

Mysen temperature yesterday

Maximum temperature yesterday: 51 °F (at 3:00 PM)
Minimum temperature yesterday: 44 °F (at 12:00 AM)
Average temperature yesterday: 48 °F

Past Weeks' High & Low Weather Summary

 TemperatureHumidityPressure
High60 °F (Oct 20, 4:00 PM)100% (Oct 13, 7:00 AM)30.27 "Hg (Oct 13, 7:00 AM)
Low33 °F (Oct 16, 5:00 PM)62% (Oct 20, 3:00 PM)29.32 "Hg (Oct 20, 2:00 AM)
Average48 °F91%29.76 "Hg
* Reported Oct 7 4:00 AM — Oct 22 4:00 AM, Mysen, Weather by CustomWeather, © 2014

Note: Actual official high and low records may vary slightly from our data, if they occured in-between our weather recording intervals... More about our weather records

Advertising

Mysen weather history for previous 24 hours

 ConditionsComfort  
Time TempWeatherWind HumidityBarometerVisibility
4:00 AM
Oct 22
49 °FDrizzle. Overcast.7 mph91%29.62 "Hg11 mi
3:00 AM49 °FOvercast.7 mph91%29.60 "Hg11 mi
2:00 AM49 °FDrizzle. Overcast.7 mph92%29.57 "Hg10 mi
1:00 AM49 °FRain showers. Overcast.6 mph94%29.54 "Hg7 mi
12:00 AM49 °FRain showers. Overcast.6 mph93%29.50 "Hg8 mi
11:00 PM
Oct 21
49 °FDrizzle. Overcast.7 mph91%29.50 "Hg8 mi
10:00 PM49 °FLight rain. Passing clouds.7 mph92%29.47 "Hg6 mi
9:00 PM49 °FLight rain. Overcast.8 mph91%29.47 "Hg6 mi
8:00 PM49 °FLight rain. Overcast.8 mph90%29.47 "Hg7 mi
7:00 PM50 °FLight rain. Overcast.7 mph87%29.44 "Hg7 mi
6:00 PM50 °FRain showers. Overcast.7 mph88%29.44 "Hg7 mi
5:00 PM50 °FOvercast.6 mph87%29.47 "Hg8 mi
4:00 PM51 °FOvercast.6 mph90%29.47 "Hg7 mi
3:00 PM51 °FOvercast.7 mph91%29.47 "Hg6 mi
2:00 PM50 °FRain showers. Overcast.7 mph95%29.47 "Hg4 mi
1:00 PM50 °FRain showers. Low clouds.6 mph94%29.50 "Hg5 mi
12:00 PM51 °FDrizzle. Overcast.3 mph90%29.50 "Hg4 mi
11:00 AM51 °FSunny.6 mph90%29.53 "Hg12 mi
10:00 AM49 °FSunny.6 mph93%29.50 "Hg11 mi
9:00 AM47 °FPassing clouds.5 mph96%29.50 "Hg7 mi
8:00 AM46 °FOvercast.6 mph98%29.50 "Hg6 mi
7:00 AM47 °FPassing clouds.7 mph97%29.50 "Hg7 mi
6:00 AM48 °FOvercast.6 mph98%29.50 "Hg11 mi
5:00 AM48 °FLow clouds.2 mph99%29.53 "Hg7 mi
Weather by CustomWeather, © 2014

See weather overviewHow to use our weather pages